Location: Anton
(37.3520°N, 87.3947°W)
Time: 23:32:31
(UTC+00:00)

N. Korean satellite - Pass Details

Date: 01 December 2022
Orbit: 407 x 442 km, 97.3° (Epoch: 05 February)

Event Time Altitude Azimuth Distance (km) Brightness Sun altitude
Rises 11:38:02 0° 360° (N) 2,520 10.0 -13.2°
Reaches altitude 10° 11:40:16 10° 349° (N) 1,634 9.0 -12.7°
Maximum altitude 11:43:21 29° 287° (WNW) 873 7.3 -12.1°
Drops below altitude 10° 11:46:23 10° 226° (SW) 1,603 8.9 -11.6°
Sets 11:48:33 0° 215° (SW) 2,462 10.0 -11.2°
